Location: Bergnershof
(48.9468°N, 10.9431°E)
Time: 10:02:30
(UTC+00:00)

Cosmos 1869 Rocket - Pass Details

Date: 03 March 2021
Orbit: 605 x 633 km, 82.5° (Epoch: 13 April)

Event Time Altitude Azimuth Distance (km) Brightness Sun altitude
Rises 18:14:00 0° 156° (SSE) 2,862 6.7 -12.5°
Reaches altitude 10° 18:16:28 10° 144° (SE) 1,967 5.8 -12.9°
Maximum altitude 18:20:05 26° 88° (E) 1,229 4.5 -13.4°
Drops below altitude 10° 18:23:43 10° 32° (NNE) 1,995 5.9 -14.0°
Sets 18:26:14 0° 20° (NNE) 2,912 6.9 -14.4°
